Selinsgrove, PA

8:10 AM EST on February 12, 2016 (GMT -0500)
Penn Valley

Weather History for KSEG - March, 2014

Change the Weather History Date:

Saturday, March 1, 2014

  Actual Average (KIPT) Record (KIPT)
Temperature  
Mean Temperature 20 °F 33 °F  
Max Temperature 33 °F 42 °F 63 °F (1991)
Min Temperature 7 °F 24 °F -1 °F (1934)
Degree Days  
Heating Degree Days 45 32  
Month to date heating degree days 32  
Since 1 July heating degree days 4499  
Cooling Degree Days 0 0  
Month to date cooling degree days 0  
Year to date cooling degree days 0  
Moisture  
Dew Point 10 °F    
Average Humidity 59    
Maximum Humidity 77    
Minimum Humidity 46    
Precipitation  
Precipitation 0.00 in 0.08 in 2.26 in (1900)
Month to date precipitation 0.08  
Year to date precipitation 5.12  
Snow  
Snow 0.00 in 0.30 in 7.00 in (1963)
Month to date snowfall 0.3  
Since 1 July snowfall 28.3  
Snow Depth -    
Sea Level Pressure  
Sea Level Pressure 30.28 in    
Wind  
Wind Speed 3 mph (South)    
Max Wind Speed 12 mph    
Max Gust Speed 17 mph    
Visibility 10 miles    
Events      
T = Trace of Precipitation, MM = Missing Value Source: NWS Daily Summary

Daily Weather History Graph

Daily Weather History Graph

Search for Another Location

Airport or City:

Trip Planner

Search our weather history database for the weather conditions in past years. The results will help you decide how hot, cold, wet, or windy it might be!

Date:

Astronomy

Mar. 01, 2014 Rise Set
Actual Time 6:41 AM EST 5:58 PM EST
Civil Twilight 6:13 AM EST 6:26 PM EST
Nautical Twilight 5:42 AM EST 6:57 PM EST
Astronomical Twilight 5:10 AM EST 7:29 PM EST
Moon 6:33 AM EST (3/1) 6:44 PM EST (3/1)
Length of Visible Light 12h 12m
Length of Day
11h 17m
New Moon, 0% of the Moon is Illuminated
Mar 1
New Moon
Mar 8
First Quarter
Mar 16
Full
Mar 23
Last Quarter
Mar 30
New

Hourly Weather History & Observations

Time (EST) Temp. Windchill Dew Point Humidity Pressure Visibility Wind Dir Wind Speed Gust Speed Precip Events Conditions
12:53 AM 10.0 °F - 1.0 °F 67% 30.39 in 10.0 mi Calm Calm - N/A   Clear
1:53 AM 9.0 °F - 1.0 °F 70% 30.39 in 10.0 mi Calm Calm - N/A   Clear
2:53 AM 9.0 °F - 1.9 °F 73% 30.37 in 10.0 mi Calm Calm - N/A   Clear
3:53 AM 7.0 °F - 1.0 °F 77% 30.37 in 10.0 mi Calm Calm - N/A   Clear
4:53 AM 9.0 °F - 1.9 °F 73% 30.35 in 10.0 mi Calm Calm - N/A   Clear
5:53 AM 9.0 °F - 1.9 °F 73% 30.36 in 10.0 mi Calm Calm - N/A   Clear
6:53 AM 8.1 °F - 1.9 °F 76% 30.36 in 10.0 mi Calm Calm - N/A   Clear
7:53 AM 12.9 °F - 3.9 °F 67% 30.37 in 10.0 mi Calm Calm - N/A   Clear
8:53 AM 19.9 °F 12.1 °F 1.9 °F 46% 30.35 in 10.0 mi SSW 5.8 mph - N/A   Clear
9:53 AM 23.0 °F 13.1 °F 5.0 °F 46% 30.34 in 10.0 mi SSW 9.2 mph - N/A   Clear
10:53 AM 26.1 °F 15.6 °F 9.0 °F 49% 30.33 in 10.0 mi SSW 11.5 mph 17.3 mph N/A   Clear
11:53 AM 27.0 °F 16.7 °F 9.0 °F 47% 30.32 in 10.0 mi South 11.5 mph - N/A   Clear
12:53 PM 28.9 °F 19.8 °F 10.9 °F 47% 30.28 in 10.0 mi South 10.4 mph - N/A   Partly Cloudy
1:53 PM 30.9 °F 22.8 °F 12.0 °F 46% 30.25 in 10.0 mi South 9.2 mph - N/A   Overcast
2:53 PM 32.0 °F 23.6 °F 14.0 °F 48% 30.24 in 10.0 mi South 10.4 mph - N/A   Mostly Cloudy
3:53 PM 33.1 °F 26.1 °F 15.1 °F 48% 30.22 in 10.0 mi SSW 8.1 mph - N/A   Overcast
4:53 PM 33.1 °F 25.5 °F 16.0 °F 50% 30.19 in 10.0 mi South 9.2 mph - N/A   Overcast
5:53 PM 32.0 °F 27.5 °F 16.0 °F 52% 30.21 in 10.0 mi SSW 4.6 mph - N/A   Clear
6:53 PM 30.9 °F 27.5 °F 16.0 °F 54% 30.22 in 10.0 mi South 3.5 mph - N/A   Clear
7:53 PM 32.0 °F 27.5 °F 17.1 °F 54% 30.19 in 10.0 mi South 4.6 mph - N/A   Overcast
8:53 PM 30.0 °F - 17.1 °F 59% 30.20 in 10.0 mi Calm Calm - N/A   Clear
9:53 PM 28.9 °F 25.2 °F 19.0 °F 67% 30.19 in 10.0 mi South 3.5 mph - N/A   Overcast
10:53 PM 30.9 °F 27.5 °F 18.0 °F 59% 30.17 in 10.0 mi SSW 3.5 mph - N/A   Clear
11:53 PM 28.0 °F 22.8 °F 19.9 °F 72% 30.15 in 10.0 mi SSE 4.6 mph - N/A   Overcast